Theta_e
302 302 301 301 301 300 299 299 301 307 312 314 316 317 321 323 324 325 325 327 330 331 328 327 326 327 324 323 323 320 319 318 316 311 311 310 311 311 310 308 307 306 305
301 301 301 301 301 299 299 300 300 308 313 314 316 318 321 324 326 326 326 326 326 328 326 325 326 326 324 323 322 319 320 317 317 312 309 308 308 308 307 306 304 301 298
300 301 301 301 300 298 300 300 301 308 312 314 316 319 321 323 325 326 326 326 327 325 324 321 323 322 323 322 319 320 319 317 315 314 309 307 306 304 303 301 298 295 294
301 301 301 300 299 298 300 300 300 307 311 315 316 317 319 323 325 325 324 324 325 325 324 323 321 319 322 320 320 319 319 316 313 312 309 307 305 301 298 297 294 294 293
299 299 299 299 299 299 300 300 301 306 312 315 316 315 320 323 323 323 324 324 324 323 322 319 319 321 321 320 320 319 316 315 312 311 307 305 301 299 297 295 294 292 292
298 299 299 298 298 299 299 300 301 308 312 315 317 315 321 321 323 322 323 323 322 319 319 321 320 320 319 320 318 316 315 313 310 308 305 301 299 296 295 295 294 294 293
298 298 298 298 298 299 299 300 301 308 311 314 317 319 322 321 322 320 320 318 319 320 320 319 318 318 318 316 314 313 311 309 305 304 302 298 295 294 293 292 293 292 291
298 299 299 299 299 299 300 300 302 309 312 315 318 320 321 319 319 319 316 320 318 319 320 319 318 316 315 313 312 310 308 307 305 297 294 293 292 292 291 290 289 288 288
298 298 298 299 299 299 300 300 304 309 314 317 319 321 317 319 316 318 319 318 318 318 317 316 315 313 312 311 310 308 299 294 293 293 292 292 291 291 290 289 289 289 288
299 298 298 298 298 298 300 301 307 311 315 314 317 316 318 317 317 318 318 318 317 315 314 312 311 311 309 308 305 295 294 292 293 293 292 291 290 289 288 288 288 288 288
296 296 297 297 298 299 300 306 309 313 313 316 317 316 318 318 318 318 317 316 315 311 310 309 308 307 303 295 295 294 294 293 293 292 291 290 289 288 287 287 286 286 285
297 296 297 297 298 298 304 308 311 312 316 316 315 315 312 314 316 315 315 315 312 310 306 304 302 296 294 294 294 294 293 293 292 291 290 288 287 287 286 286 285 285 284
297 297 296 298 298 302 306 308 309 312 316 312 311 309 307 310 313 313 313 312 310 305 301 295 293 293 293 293 293 293 293 293 292 291 289 287 287 287 286 286 286 285 285
299 298 298 298 302 305 307 308 309 309 314 315 313 310 309 310 312 312 310 306 302 297 293 293 293 293 293 293 293 293 293 292 292 291 289 287 287 287 287 287 287 286 286
301 300 298 300 304 306 306 307 309 308 312 314 312 314 314 313 311 310 307 302 296 294 294 293 293 293 293 292 292 292 292 292 292 290 288 288 287 287 287 287 286 286 286
301 300 301 304 306 306 306 307 308 309 311 313 315 315 313 313 309 306 303 298 295 294 294 293 293 292 292 292 292 292 292 291 290 290 289 289 288 287 287 287 286 286 286
301 301 304 305 305 305 306 307 306 305 307 314 316 316 314 311 308 303 297 294 294 294 294 293 293 292 292 292 292 292 292 291 291 291 291 290 288 287 287 287 286 286 286
303 304 305 304 304 304 306 305 305 305 303 305 311 314 311 308 303 298 295 294 294 294 294 293 293 292 293 293 293 292 292 291 292 291 291 290 289 288 287 287 287 287 286
305 305 303 303 303 303 304 303 304 303 303 302 306 308 306 302 297 294 294 294 294 293 293 293 293 293 293 293 292 292 292 292 292 292 291 290 290 290 288 287 287 287 287
305 305 304 302 302 303 303 303 303 308 308 309 308 305 301 297 294 293 293 294 294 293 293 293 293 293 293 293 292 292 292 292 292 291 291 291 290 290 289 289 288 287 287
305 304 304 303 304 306 305 306 309 310 310 309 305 300 297 294 294 293 293 294 294 293 293 293 293 293 293 293 293 293 293 292 292 291 291 291 290 290 290 289 289 288 287
305 304 304 304 304 305 305 309 311 311 308 303 299 297 294 294 294 293 293 294 293 293 293 293 293 293 293 293 293 293 293 292 292 292 291 291 291 290 290 290 289 289 288
305 305 305 306 307 309 309 310 310 307 301 299 296 294 294 294 293 293 293 293 293 293 293 293 293 293 293 293 293 293 293 292 292 292 291 291 291 290 290 290 289 289 289
306 307 307 307 308 308 310 310 306 302 299 295 294 294 294 293 293 293 293 293 293 293 293 293 293 293 293 293 293 293 292 292 292 291 291 291 291 290 290 290 290 289 289
305 306 307 308 309 311 311 307 303 300 297 294 294 294 293 292 293 293 293 293 293 293 293 293 293 293 293 293 293 293 292 292 292 292 291 291 291 291 291 290 290 290 290
306 306 307 307 309 310 310 306 301 299 295 294 295 294 293 292 293 293 293 293 294 293 293 293 293 293 293 293 293 293 293 292 292 292 292 291 291 291 291 290 290 290 289
Wind_Speed
22 23 25 25 27 31 34 33 27 23 23 21 22 20 19 17 20 20 26 29 35 35 31 29 30 30 26 25 20 26 20 26 30 31 29 26 20 17 15 14 10 9 6
23 23 23 25 27 31 33 32 26 20 21 20 20 19 18 16 22 23 26 27 27 30 31 29 27 28 26 22 24 28 21 23 22 36 30 26 23 17 14 10 8 9 11
22 21 23 25 27 35 31 29 24 20 21 18 15 16 13 13 17 18 25 25 30 33 30 30 28 26 23 24 28 26 22 25 30 34 34 26 22 16 11 8 8 11 11
21 22 25 27 28 34 32 29 25 21 22 17 15 17 13 17 17 20 20 23 26 23 26 29 26 22 27 30 29 25 22 27 32 29 28 24 18 13 9 9 10 10 10
24 26 27 28 29 32 31 30 26 21 20 16 14 12 7 11 19 15 19 23 23 27 29 28 26 30 31 29 26 22 25 29 26 25 25 19 13 9 8 10 10 8 9
25 26 28 29 32 34 34 28 26 21 20 14 12 16 13 9 11 22 24 30 35 36 29 30 32 32 31 25 24 26 26 25 27 23 19 13 11 10 10 8 6 3 2
24 27 30 31 33 31 31 26 24 20 19 13 14 9 18 15 21 28 32 26 32 37 37 36 35 32 30 32 31 29 26 24 20 17 17 13 13 10 8 7 7 7 7
30 31 30 31 31 30 27 23 22 19 17 10 9 9 15 32 36 33 31 40 44 42 39 36 35 35 34 33 33 33 28 23 19 19 17 16 13 11 9 8 9 10 10
35 32 28 28 27 26 25 23 18 19 13 11 6 17 42 40 31 29 44 46 44 42 38 36 34 34 32 29 31 31 30 29 23 20 19 16 14 12 12 9 8 7 9
31 28 27 24 24 23 23 20 19 14 11 19 28 44 45 37 31 41 43 45 45 43 42 40 35 32 30 25 26 30 34 30 25 22 21 19 18 16 15 14 10 8 6
33 30 26 24 23 21 19 17 13 3 23 32 33 32 41 36 42 43 45 46 48 48 45 40 34 28 27 30 30 31 32 30 26 25 23 21 19 19 20 18 16 15 14
30 28 24 22 22 16 13 9 4 26 30 32 36 35 36 45 43 45 44 43 45 46 42 38 34 32 33 33 33 32 30 29 27 25 23 21 20 19 20 20 21 22 20
22 21 20 18 14 7 8 3 13 31 32 36 35 41 41 43 44 47 45 44 42 41 41 40 39 37 38 37 33 31 29 27 26 25 23 21 19 18 17 18 18 20 22
19 16 14 11 4 3 4 4 20 28 38 36 36 40 45 42 45 46 46 43 40 42 44 42 40 39 38 37 33 29 28 27 26 26 24 21 17 16 16 15 15 15 17
14 11 7 3 2 7 6 4 22 28 34 34 39 48 45 46 46 42 41 41 42 44 45 43 41 40 38 35 32 30 29 28 27 24 22 21 19 18 17 16 15 15 15
8 4 5 5 13 15 7 17 23 26 29 34 40 42 46 45 44 39 37 36 40 42 42 42 40 36 34 33 32 30 28 27 25 24 23 22 20 19 18 16 15 15 15
2 9 11 17 17 12 18 26 29 27 34 39 43 42 42 45 38 35 35 40 41 39 40 40 38 34 33 32 31 29 28 27 26 25 24 22 21 20 17 16 15 15 15
13 14 17 17 22 30 31 33 36 40 41 43 43 43 42 38 35 33 37 40 41 37 37 38 36 34 33 32 31 30 28 27 26 25 23 22 21 21 19 17 15 15 15
13 18 15 21 28 34 36 42 45 46 48 47 46 42 38 35 33 35 36 37 38 38 36 36 34 33 32 31 30 29 28 26 25 24 23 22 21 21 21 20 21 19 16
10 13 18 27 34 41 46 47 50 48 49 47 44 42 38 34 37 37 37 36 35 36 35 35 33 32 31 30 29 28 27 25 24 23 22 22 21 21 21 20 18 17 16
12 18 22 30 34 36 42 46 47 49 47 43 41 37 35 35 37 38 37 34 34 35 34 33 32 31 30 29 28 27 25 24 23 22 21 21 20 20 20 19 18 17 15
15 20 25 29 36 41 45 46 46 45 42 41 38 34 33 35 37 38 36 35 34 33 32 31 31 30 28 27 26 25 23 23 22 21 20 20 19 19 18 19 18 17 15
16 22 27 30 33 39 42 43 42 41 39 37 36 36 35 35 37 37 36 36 34 33 32 30 31 30 28 26 24 23 22 21 21 20 20 19 18 18 17 17 16 15 14
14 18 21 27 32 35 40 41 39 37 35 35 36 36 35 36 38 36 35 35 34 33 31 30 29 28 28 26 24 23 21 21 21 19 18 18 17 17 16 15 15 14 14
15 18 20 25 30 33 36 37 36 35 33 35 36 36 35 38 38 36 35 34 33 32 31 29 28 26 24 24 23 22 21 19 19 19 18 17 17 17 16 15 14 13 13
13 16 20 24 28 30 33 35 35 33 33 35 35 35 34 37 37 36 35 34 33 31 30 28 26 25 24 23 22 20 20 19 19 18 18 17 16 16 16 15 15 15 14
Wind_Direction
309 311 315 318 325 330 329 329 317 312 311 308 302 294 277 265 229 218 217 215 200 201 205 201 203 186 182 185 188 183 182 187 164 149 150 146 150 147 144 128 114 91 84
310 308 311 318 321 329 327 328 324 310 312 303 302 283 267 253 213 203 204 201 203 192 191 189 185 182 179 182 185 178 181 177 181 156 152 150 144 141 133 122 98 86 73
312 309 311 317 321 327 328 324 321 307 312 311 298 294 296 241 211 203 207 193 199 190 180 178 172 172 179 180 175 175 170 165 169 163 156 152 146 138 133 113 95 83 77
317 314 312 317 319 326 326 325 321 312 323 322 308 268 293 223 191 200 200 192 187 182 181 176 163 171 184 173 169 166 160 162 164 162 156 155 147 131 109 102 96 88 82
314 315 313 313 316 322 326 328 321 315 331 330 317 275 264 183 167 179 193 190 188 179 150 154 170 173 170 163 159 157 155 153 154 155 153 146 133 122 116 114 108 102 86
316 314 313 314 316 323 327 324 320 320 333 331 324 271 210 164 184 212 202 188 166 153 157 160 163 159 151 149 145 142 150 148 147 150 142 131 129 128 116 118 124 122 40
318 317 313 313 314 319 322 320 321 321 333 345 318 273 183 176 184 172 140 130 140 145 146 144 139 135 134 134 132 135 134 135 130 132 132 125 122 121 117 106 105 110 108
316 313 310 309 311 313 318 318 321 327 338 351 293 192 181 167 156 146 144 149 143 139 139 138 137 138 141 140 135 133 130 128 130 129 126 122 117 112 115 112 106 99 85
311 310 309 307 309 312 317 319 322 332 354 18 193 171 150 152 140 157 155 145 139 133 132 132 134 136 140 140 140 134 128 122 120 116 112 105 103 99 96 92 97 86 85
306 304 305 305 308 310 313 317 326 342 47 123 142 147 149 136 143 155 147 136 131 129 127 127 130 130 136 142 136 131 123 118 119 113 106 102 96 92 90 83 82 89 104
303 305 302 304 303 306 311 329 328 38 132 134 130 140 140 143 157 145 141 137 134 130 128 128 126 127 134 131 127 123 118 120 116 111 105 97 89 84 80 79 84 83 78
304 300 295 300 306 305 317 345 346 146 156 149 136 142 143 143 142 140 140 136 135 132 128 124 124 129 127 123 118 115 115 115 112 106 100 94 88 84 81 79 78 77 78
298 294 294 297 299 304 335 37 139 151 152 144 138 137 133 134 138 141 138 136 136 131 126 126 129 128 124 118 114 114 113 111 109 105 101 97 92 87 84 80 77 75 75
303 299 298 297 287 311 135 133 162 144 143 144 142 143 138 140 140 139 136 136 135 131 130 131 131 127 121 117 116 115 112 110 106 101 99 96 93 89 84 80 79 75 72
304 299 288 233 112 122 150 166 167 156 156 163 153 155 149 140 141 142 142 141 138 138 135 134 130 127 122 119 117 114 111 107 102 98 96 94 90 86 82 78 76 77 76
294 272 165 117 131 142 151 150 163 159 161 156 152 149 143 142 145 145 142 143 140 138 136 134 130 127 123 122 119 116 111 106 102 99 95 91 89 85 81 77 77 76 76
188 149 125 133 146 158 156 152 136 143 159 156 151 147 144 143 144 142 140 140 138 141 136 135 132 129 126 124 120 116 113 108 103 99 95 93 89 85 81 79 77 76 74
130 116 126 144 151 141 147 145 144 148 135 136 145 143 141 140 141 141 144 141 141 142 138 136 132 130 129 126 122 118 114 109 105 101 98 95 91 89 86 82 80 79 77
108 129 139 150 145 139 142 139 142 139 134 129 133 138 139 139 139 141 143 142 142 141 138 134 131 132 131 127 123 119 114 111 108 105 102 98 95 93 90 89 88 86 83
115 141 148 146 139 137 138 136 136 135 133 134 138 139 141 142 142 143 145 144 145 140 137 133 134 134 132 128 124 120 116 114 111 109 105 103 100 97 96 94 92 89 82
126 136 143 142 140 142 139 136 137 138 137 139 138 140 142 144 144 145 146 147 143 139 137 135 136 133 131 129 125 122 119 117 115 112 110 106 105 103 100 96 91 88 87
129 140 142 143 142 143 139 137 139 139 140 140 137 139 141 145 145 145 147 144 142 139 137 137 135 131 129 126 125 123 122 119 117 115 112 110 109 106 102 98 95 93 88
124 138 138 143 145 143 141 141 142 143 141 138 137 138 144 146 146 146 146 143 141 140 139 139 135 132 128 126 124 123 123 120 118 116 114 112 110 108 105 102 99 95 92
123 134 137 143 147 147 145 145 141 140 140 139 138 141 145 147 147 146 147 144 142 141 141 139 137 134 133 130 128 126 124 123 120 117 114 112 110 109 107 105 100 97 93
127 138 142 146 148 148 148 141 142 142 143 143 142 145 148 149 149 149 147 146 145 144 142 141 139 135 132 130 128 126 124 122 119 117 115 113 110 108 106 104 101 98 95
113 129 140 147 150 149 148 147 146 146 147 146 146 148 151 153 152 151 151 149 148 146 143 142 140 138 136 133 131 129 126 124 121 118 115 112 109 107 105 103 100 96 93